ECHO 2 DEB (METAL OBJ), 742

Orbit data source: Space-Track

ECHO 2 DEB (METAL OBJ), 742 is space debris in LEO originally from a launch on Sat, 25 Jan 1964 UTC launched from the Air Force Western Test Range (AFWTR). Debris objects in space refer to the collection of defunct objects orbiting the Earth. Examples of debris include non-operational satellites, rocket bodies, and fragments generated from explosions, collisions, or faulty payload assembly.

Loading next visibility...
Identifier
742, 1964-004C
Orbit
LEO
Country
Flag of USUS
Related business
Manufacturer
Grummann
Mission
Spacecraft
Bus & Motor
ECHO CANISTER, Unknown motor
Mass
35 kg wet, 35 kg dry
Launch date (UTC)
1964-01-25 (62 years ago)
Launch vehicle
Unknown
Launch site
Air Force Western Test Range (AFWTR)
Object type
Payload
Rocket body
Debris
Shape & HBR
Unknown shape, 0.9 m
Radar Cross Section
Medium (>0.1 m² and <1 m²)

Expand to show TLE details & history
Last TLE update: 12 hours ago

TLE from 12 hours ago
0 ECHO 2 DEB (METAL OBJ)
1 00742U 64004C   25310.74077956  .00000109  00000-0  21013-3 0  9993
2 00742  81.4668 237.6290 0171415 311.4127  47.2372 13.26255227987874
Epoch: 2025-11-06T17:46Z
TLE epoch observation values (Epoch: 2025-11-06T17:46:43.353Z)
Latitude
0.00001°
Longitude
-75.24639°
Altitude
1,077.169 km
Speed
7.355 km/s
True Right ascension
15h 50m 30s
True Declination
0° 00' 00"
Sunlit
Object was in daylight at epoch
Visualization orbit readout
Latitude
Unknown
Longitude
Unknown
Altitude
Unknown
Speed
Unknown
Apparent Right ascension
Unknown
Apparent Declination
Unknown
Sunlit
N/A
Visualization observer readout
Local Sidereal Time
01:55:50
Azimuth
Unknown
Elevation
Unknown
Doppler factor
Unknown
Orbital elements
Apogee altitude
1,287.382 km
Perigee altitude
1,029.013 km
Semi-major axis
7,536.335 km
Eccentricity
0.01714
Inclination
81.4668°
RAAN
237.629°
Arg. of periapsis
311.4127°
True anomaly
48.70043°
Mean anomaly
47.2372°
Eccentric anomaly
47.96669°
Mean motion
3.31744 °/min
Orbital period
108.52 mins
BSTAR
0.00021013
Loading maneuver chart data...
Computing Atmospheric mass density...
Loading historical data...
Loading historical data...
Loading historical data...
Loading historical data...
Loading historical data...
Loading historical data...
Loading historical data...

Documentation

Showing up to 5 results
|